Location: Alfortville
(48.8058°N, 2.4204°E)
Time: 04:40:16
(UTC+00:00)

Cosmos 1980 Rocket - Pass Details

Date: 25 May 2022
Orbit: 827 x 851 km, 71.0° (Epoch: 05 July)

Event Time Altitude Azimuth Distance (km) Brightness Sun altitude
Rises 22:22:16 0° 239° (WSW) 3,378 5.2 -17.6°
Reaches altitude 10° 22:24:58 10° 249° (WSW) 2,451 4.6 -17.7°
Maximum altitude 22:29:57 32° 312° (NW) 1,422 4.0 -18.0°
Drops below altitude 10° 22:35:00 10° 15° (NNE) 2,478 5.5 -18.3°
Sets 22:37:45 0° 25° (NNE) 3,420 6.1 -18.4°
